EW8371 Weather Reports


Display with metric or nautical units.
time (UTC)temp
F
wind
direction
speed
MPH
gust
MPH
rain 1hr
in
rain 24hr
in
rain mn
in
humidity
%
barometer
mb
20260508061527 33 86 0.0 0.0 0.00 0.00 0.00 89 1008.0
20260508060057 33 86 0.0 1.0 0.00 0.00 0.00 89 1008.1
20260508054557 33 86 0.0 0.0 0.00 0.00 0.00 89 1008.2
20260508053056 33 86 0.0 1.0 0.00 0.00 0.00 89 1008.4
20260508051549 33 86 0.0 2.0 0.00 0.00 0.00 88 1008.5
20260508050048 33 86 0.0 0.0 0.00 0.00 0.00 88 1008.4
20260508044602 33 86 0.0 0.0 0.00 0.00 0.00 87 1008.5
20260508043046 33 86 0.0 0.0 0.00 0.00 0.00 87 1008.4
20260508041542 33 86 0.0 0.0 0.00 0.00 0.00 86 1008.2
20260508040042 33 86 0.0 0.0 0.00 0.00 0.00 85 1008.1
20260508034549 33 86 0.0 0.0 0.00 0.00 0.00 85 1008.0
20260508033009 34 86 0.0 2.0 0.00 0.00 0.00 84 1008.0
20260508031506 35 163 0.0 3.0 0.00 0.00 0.00 81 1007.9
20260508030043 35 284 1.0 2.0 0.00 0.00 0.00 80 1007.8
20260508024538 36 322 0.0 0.0 0.00 0.00 0.00 80 1007.8
20260508023029 37 322 0.0 0.0 0.00 0.00 0.00 78 1008.0
20260508021522 37 322 0.0 0.0 0.00 0.00 0.00 75 1007.9
20260508020021 38 322 0.0 0.0 0.00 0.00 0.00 74 1007.9
20260508014517 39 322 0.0 2.0 0.00 0.00 0.00 69 1007.9
20260508013011 40 322 0.0 2.0 0.00 0.00 0.00 66 1008.0
20260508011511 42 322 0.0 2.0 0.00 0.00 0.00 61 1008.0
20260508010008 42 322 0.0 2.0 0.00 0.00 0.00 60 1007.6
20260508004502 43 322 0.0 2.0 0.00 0.00 0.00 56 1007.5
20260508003101 44 322 0.0 2.0 0.00 0.01 0.00 53 1007.4
20260508001555 46 333 0.0 2.0 0.00 0.01 0.00 49 1007.1
20260508000051 47 355 1.0 5.0 0.00 0.01 0.00 45 1007.0
20260507234559 48 13 2.0 5.0 0.00 0.01 0.00 43 1006.9
20260507233049 48 355 2.0 8.0 0.00 0.01 0.00 43 1006.8
20260507231531 49 351 0.0 6.0 0.00 0.01 0.00 41 1006.8
20260507230018 50 355 4.0 10.0 0.00 0.01 0.00 40 1006.6
20260507224520 50 355 3.0 11.0 0.00 0.01 0.00 41 1006.6
20260507223015 50 348 2.0 13.0 0.00 0.02 0.00 41 1006.6
20260507221516 51 306 5.0 12.0 0.00 0.02 0.00 42 1006.7
20260507220016 51 360 5.0 10.0 0.00 0.02 0.00 43 1006.7
20260507214512 51 317 3.0 8.0 0.00 0.02 0.00 42 1006.9
20260507213014 52 250 2.0 14.0 0.00 0.03 0.00 40 1006.7
20260507211512 51 248 7.0 14.0 0.00 0.03 0.00 39 1006.8
20260507210010 52 284 5.0 15.0 0.00 0.03 0.00 41 1006.5
20260507204507 52 349 6.0 13.0 0.00 0.03 0.00 39 1006.7
20260507203008 51 339 4.0 12.0 0.00 0.04 0.00 42 1006.7
20260507201506 52 5 9.0 14.0 0.00 0.04 0.00 40 1006.6
20260507200005 51 271 7.0 17.0 0.00 0.04 0.00 44 1006.8
20260507194600 50 273 4.0 12.0 0.00 0.04 0.00 40 1006.9
20260507193102 51 294 5.0 16.0 0.00 0.05 0.00 43 1007.0
20260507191558 51 160 4.0 10.0 0.00 0.05 0.00 44 1007.0
20260507190055 51 34 6.0 16.0 0.00 0.05 0.00 44 1007.4
20260507184524 51 360 8.0 17.0 0.00 0.05 0.00 45 1007.4
20260507183033 53 269 4.0 10.0 0.00 0.07 0.00 43 1007.6
20260507181520 52 207 6.0 15.0 0.00 0.07 0.00 45 1007.6
20260507180020 50 289 3.0 14.0 0.00 0.07 0.00 48 1007.8
20260507174512 50 246 6.0 16.0 0.00 0.07 0.00 49 1007.8
20260507173011 49 290 6.0 14.0 0.00 0.10 0.00 52 1007.8
20260507171507 50 323 4.0 10.0 0.00 0.10 0.00 52 1008.0
20260507170005 48 344 3.0 13.0 0.00 0.10 0.00 53 1008.2
20260507164502 48 302 9.0 18.0 0.00 0.10 0.00 49 1008.1
20260507163000 48 238 4.0 13.0 0.00 0.19 0.00 50 1008.2
20260507161604 48 275 5.0 13.0 0.00 0.19 0.00 50 1008.4
20260507160100 49 5 6.0 12.0 0.00 0.19 0.00 50 1008.4
20260507154554 47 355 7.0 15.0 0.00 0.19 0.00 50 1008.6
20260507153051 47 310 3.0 9.0 0.00 0.20 0.19 52 1008.8
20260507151548 47 342 6.0 10.0 0.00 0.20 0.19 52 1008.9
20260507150048 47 284 3.0 12.0 0.00 0.20 0.19 53 1008.9
20260507144547 46 267 4.0 14.0 0.00 0.20 0.19 53 1009.1
20260507143047 46 360 4.0 13.0 0.00 0.28 0.19 53 1009.1
20260507141551 46 342 5.0 13.0 0.00 0.28 0.19 55 1009.1
20260507140043 45 45 2.0 19.0 0.00 0.28 0.19 56 1009.1
20260507134551 45 21 5.0 13.0 0.00 0.28 0.19 55 1009.2
20260507133042 44 251 5.0 11.0 0.00 0.31 0.19 58 1009.3
20260507131541 43 265 6.0 15.0 0.00 0.31 0.19 58 1009.2
20260507130041 43 296 4.0 11.0 0.00 0.31 0.19 59 1009.3
20260507124537 42 355 3.0 12.0 0.00 0.31 0.19 60 1009.3
20260507123038 42 336 3.0 8.0 0.00 0.33 0.19 63 1009.2
20260507121505 41 266 2.0 9.0 0.00 0.33 0.19 66 1009.0
20260507120006 40 311 4.0 14.0 0.00 0.33 0.19 70 1009.0
20260507114504 39 273 1.0 9.0 0.00 0.33 0.19 75 1009.0
20260507113002 38 242 1.0 4.0 0.00 0.37 0.19 80 1009.0
20260507111500 36 167 0.0 2.0 0.00 0.37 0.19 88 1009.1
20260507110120 35 157 1.0 2.0 0.00 0.37 0.19 91 1009.0
20260507104558 35 159 0.0 2.0 0.00 0.37 0.19 92 1008.7
20260507103056 34 137 0.0 2.0 0.00 0.38 0.19 93 1008.6
20260507101552 34 292 0.0 0.0 0.00 0.38 0.19 92 1008.5
20260507100049 35 292 0.0 1.0 0.00 0.38 0.19 92 1008.6
20260507094548 36 292 0.0 2.0 0.00 0.38 0.19 91 1008.5
20260507093042 36 292 0.0 2.0 0.00 0.39 0.19 90 1008.5
20260507091548 38 294 0.0 0.0 0.00 0.39 0.19 65 1008.5
20260507090041 38 252 0.0 0.0 0.00 0.39 0.19 69 1008.5
20260507084539 39 327 1.0 5.0 0.00 0.39 0.19 71 1008.5
20260507083036 40 268 0.0 6.0 0.00 0.39 0.19 69 1008.3
20260507081526 40 252 2.0 4.0 0.00 0.39 0.19 64 1008.2
20260507080028 40 339 1.0 2.0 0.00 0.39 0.19 62 1008.3
20260507074537 41 267 2.0 8.0 0.00 0.39 0.19 61 1008.4
20260507073019 41 22 0.0 3.0 0.00 0.39 0.19 53 1008.3
20260507071517 41 241 1.0 6.0 0.00 0.39 0.19 47 1008.1
20260507070014 42 329 2.0 8.0 0.00 0.39 0.19 44 1008.2
20260507064512 42 18 2.0 13.0 0.00 0.39 0.19 42 1008.0
20260507063007 42 327 3.0 8.0 0.00 0.39 0.19 40 1007.8